{"data":{"norad_id":53986,"intl_designator":"2022-125Y","name":"STARLINK-5119","alt_names":[],"object_type":"PAYLOAD","status":"ACTIVE","operator":null,"country":"US","launch_date":"2022-10-05","launch_site_code":"AFWTR","launch_vehicle":null,"mission":null,"orbit_class":"UNKNOWN","rcs_meters":null,"size_class":null,"mass_kg":null,"dimensions":null,"purposes":["comms"],"wikipedia_slug":null,"has_3d_model":false,"image_url":null,"decayed_at":null,"tle_current":{"epoch":"2026-05-24T21:45:49.578048Z","epoch_age_seconds":76483,"freshness":"FRESH","line1":"1 53986U 22125Y   26144.90682382  .00000638  00000+0  58167-4 0  9995","line2":"2 53986  53.2131 221.6486 0001329  80.1740 279.9402 15.08825040201102","mean_motion":15.0882504,"eccentricity":0.0001329,"inclination_deg":53.2131,"raan_deg":221.6486,"arg_perigee_deg":80.174,"mean_anomaly_deg":279.9402,"bstar":5.8167e-5,"rev_number":20110,"period_min":95.438500941103,"perigee_km":538.86972369626,"apogee_km":540.70850845791,"semimajor_km":6917.9261160771,"source":"CELESTRAK","updated_at":"2026-05-25T13:38:17.621304Z"}}}